{"data":{"norad_id":63454,"intl_designator":"2025-069X","name":"STARLINK-33768","alt_names":[],"object_type":"PAYLOAD","status":"ACTIVE","operator":null,"country":"US","launch_date":"2025-04-04","launch_site_code":"AFWTR","launch_vehicle":null,"mission":null,"orbit_class":"UNKNOWN","rcs_meters":null,"size_class":null,"mass_kg":null,"dimensions":null,"purposes":["comms"],"wikipedia_slug":null,"has_3d_model":false,"image_url":null,"decayed_at":null,"tle_current":{"epoch":"2026-05-24T23:41:39.712416Z","epoch_age_seconds":72281,"freshness":"FRESH","line1":"1 63454U 25069X   26144.98726519  .00031221  00000+0  72318-3 0  9990","line2":"2 63454  53.1589 145.4093 0001944  81.0385 279.0841 15.42191907 65117","mean_motion":15.42191907,"eccentricity":0.0001944,"inclination_deg":53.1589,"raan_deg":145.4093,"arg_perigee_deg":81.0385,"mean_anomaly_deg":279.0841,"bstar":0.00072318,"rev_number":6511,"period_min":93.373593355266,"perigee_km":438.31623882132,"apogee_km":440.96699114683,"semimajor_km":6817.7786149841,"source":"CELESTRAK","updated_at":"2026-05-25T13:38:20.002634Z"}}}